Year,Month,Day,Hour,Minute,Value (Times are PST for temperature in C)
2007,07,12,00,00,20.40
2007,07,12,00,01,20.40
2007,07,12,00,02,20.30
2007,07,12,00,03,20.30
2007,07,12,00,04,20.30
2007,07,12,00,05,20.30
2007,07,12,00,06,20.30
2007,07,12,00,07,20.40
2007,07,12,00,08,20.40
2007,07,12,00,09,20.40
2007,07,12,00,10,20.40
2007,07,12,00,11,20.40
2007,07,12,00,12,20.50
2007,07,12,00,13,20.50
2007,07,12,00,14,20.50
2007,07,12,00,15,20.50
2007,07,12,00,16,20.50
2007,07,12,00,17,20.50
2007,07,12,00,18,20.60
2007,07,12,00,19,20.60
2007,07,12,00,20,20.60
2007,07,12,00,21,20.60
2007,07,12,00,22,20.60
2007,07,12,00,23,20.60
2007,07,12,00,24,20.60
2007,07,12,00,25,20.60
2007,07,12,00,26,20.60
2007,07,12,00,27,20.60
2007,07,12,00,28,20.60
2007,07,12,00,29,20.60
2007,07,12,00,30,20.60
2007,07,12,00,31,20.70
2007,07,12,00,32,20.70
2007,07,12,00,33,20.70
2007,07,12,00,34,20.80
2007,07,12,00,35,20.80
2007,07,12,00,36,20.80
2007,07,12,00,37,20.80
2007,07,12,00,38,20.80
2007,07,12,00,39,20.80
2007,07,12,00,40,20.80
2007,07,12,00,41,20.80
2007,07,12,00,42,20.80
2007,07,12,00,43,20.80
2007,07,12,00,44,20.80
2007,07,12,00,45,20.70
2007,07,12,00,46,20.70
2007,07,12,00,47,20.70
2007,07,12,00,48,20.70
2007,07,12,00,49,20.60
2007,07,12,00,50,20.60
2007,07,12,00,51,20.60
2007,07,12,00,52,20.60
2007,07,12,00,53,20.50
2007,07,12,00,54,20.50
2007,07,12,00,55,20.50
2007,07,12,00,56,20.50
2007,07,12,00,57,20.40
2007,07,12,00,58,20.40
2007,07,12,00,59,20.40
2007,07,12,01,00,20.40
2007,07,12,01,01,20.40
2007,07,12,01,02,20.40
2007,07,12,01,03,20.40
2007,07,12,01,04,20.30
2007,07,12,01,05,20.30
2007,07,12,01,06,20.30
2007,07,12,01,07,20.20
2007,07,12,01,08,20.10
2007,07,12,01,09,20.00
2007,07,12,01,10,19.90
2007,07,12,01,11,19.90
2007,07,12,01,12,19.80
2007,07,12,01,13,19.70
2007,07,12,01,14,19.70
2007,07,12,01,15,19.70
2007,07,12,01,16,19.70
2007,07,12,01,17,19.70
2007,07,12,01,18,19.70
2007,07,12,01,19,19.70
2007,07,12,01,20,19.60
2007,07,12,01,21,19.60
2007,07,12,01,22,19.60
2007,07,12,01,23,19.60
2007,07,12,01,24,19.60
2007,07,12,01,25,19.60
2007,07,12,01,26,19.50
2007,07,12,01,27,19.50
2007,07,12,01,28,19.50
2007,07,12,01,29,19.50
2007,07,12,01,30,19.50
2007,07,12,01,31,19.50
2007,07,12,01,32,19.50
2007,07,12,01,33,19.50
2007,07,12,01,34,19.50
2007,07,12,01,35,19.50
2007,07,12,01,36,19.50
2007,07,12,01,37,19.40
2007,07,12,01,38,19.40
2007,07,12,01,39,19.40
2007,07,12,01,40,19.30
2007,07,12,01,41,19.30
2007,07,12,01,42,19.20
2007,07,12,01,43,19.10
2007,07,12,01,44,19.00
2007,07,12,01,45,18.90
2007,07,12,01,46,18.80
2007,07,12,01,47,18.70
2007,07,12,01,48,18.60
2007,07,12,01,49,18.60
2007,07,12,01,50,18.50
2007,07,12,01,51,18.50
2007,07,12,01,52,18.60
2007,07,12,01,53,18.60
2007,07,12,01,54,18.60
2007,07,12,01,55,18.70
2007,07,12,01,56,18.70
2007,07,12,01,57,18.70
2007,07,12,01,58,18.70
2007,07,12,01,59,18.70
2007,07,12,02,00,18.60
2007,07,12,02,01,18.60
2007,07,12,02,02,18.60
2007,07,12,02,03,18.50
2007,07,12,02,04,18.50
2007,07,12,02,05,18.30
2007,07,12,02,06,18.20
2007,07,12,02,07,18.20
2007,07,12,02,08,18.10
2007,07,12,02,09,18.00
2007,07,12,02,10,17.90
2007,07,12,02,11,17.90
2007,07,12,02,12,17.90
2007,07,12,02,13,17.90
2007,07,12,02,14,17.90
2007,07,12,02,15,17.80
2007,07,12,02,16,17.80
2007,07,12,02,17,17.80
2007,07,12,02,18,17.80
2007,07,12,02,19,17.80
2007,07,12,02,20,17.70
2007,07,12,02,21,17.70
2007,07,12,02,22,17.70
2007,07,12,02,23,17.70
2007,07,12,02,24,17.80
2007,07,12,02,25,17.80
2007,07,12,02,26,17.80
2007,07,12,02,27,17.80
2007,07,12,02,28,17.80
2007,07,12,02,29,17.80
2007,07,12,02,30,17.90
2007,07,12,02,31,17.90
2007,07,12,02,32,17.90
2007,07,12,02,33,17.90
2007,07,12,02,34,17.90
2007,07,12,02,35,17.90
2007,07,12,02,36,17.90
2007,07,12,02,37,17.90
2007,07,12,02,38,17.90
2007,07,12,02,39,17.90
2007,07,12,02,40,17.90
2007,07,12,02,41,17.90
2007,07,12,02,42,17.90
2007,07,12,02,43,17.90
2007,07,12,02,44,17.90
2007,07,12,02,45,17.90
2007,07,12,02,46,17.80
2007,07,12,02,47,17.80
2007,07,12,02,48,17.80
2007,07,12,02,49,17.80
2007,07,12,02,50,17.80
2007,07,12,02,51,17.80
2007,07,12,02,52,17.80
2007,07,12,02,53,17.80
2007,07,12,02,54,17.80
2007,07,12,02,55,17.80
2007,07,12,02,56,17.80
2007,07,12,02,57,17.80
2007,07,12,02,58,17.70
2007,07,12,02,59,17.70
2007,07,12,03,00,17.70
2007,07,12,03,01,17.70
2007,07,12,03,02,17.70
2007,07,12,03,03,17.70
2007,07,12,03,04,17.70
2007,07,12,03,05,17.60
2007,07,12,03,06,17.60
2007,07,12,03,07,17.60
2007,07,12,03,08,17.60
2007,07,12,03,09,17.60
2007,07,12,03,10,17.60
2007,07,12,03,11,17.60
2007,07,12,03,12,17.50
2007,07,12,03,13,17.50
2007,07,12,03,14,17.50
2007,07,12,03,15,17.50
2007,07,12,03,16,17.50
2007,07,12,03,17,17.50
2007,07,12,03,18,17.50
2007,07,12,03,19,17.50
2007,07,12,03,20,17.50
2007,07,12,03,21,17.50
2007,07,12,03,22,17.50
2007,07,12,03,23,17.50
2007,07,12,03,24,17.50
2007,07,12,03,25,17.50
2007,07,12,03,26,17.50
2007,07,12,03,27,17.50
2007,07,12,03,28,17.50
2007,07,12,03,29,17.50
2007,07,12,03,30,17.50
2007,07,12,03,31,17.50
2007,07,12,03,32,17.50
2007,07,12,03,33,17.50
2007,07,12,03,34,17.50
2007,07,12,03,35,17.50
2007,07,12,03,36,17.50
2007,07,12,03,37,17.50
2007,07,12,03,38,17.60
2007,07,12,03,39,17.60
2007,07,12,03,40,17.60
2007,07,12,03,41,17.70
2007,07,12,03,42,17.70
2007,07,12,03,43,17.70
2007,07,12,03,44,17.70
2007,07,12,03,45,17.70
2007,07,12,03,46,17.70
2007,07,12,03,47,17.70
2007,07,12,03,48,17.70
2007,07,12,03,49,17.60
2007,07,12,03,50,17.60
2007,07,12,03,51,17.60
2007,07,12,03,52,17.60
2007,07,12,03,53,17.60
2007,07,12,03,54,17.60
2007,07,12,03,55,17.60
2007,07,12,03,56,17.60
2007,07,12,03,57,17.60
2007,07,12,03,58,17.60
2007,07,12,03,59,17.60
2007,07,12,04,00,17.60
2007,07,12,04,01,17.60
2007,07,12,04,02,17.60
2007,07,12,04,03,17.60
2007,07,12,04,04,17.60
2007,07,12,04,05,17.60
2007,07,12,04,06,17.50
2007,07,12,04,07,17.50
2007,07,12,04,08,17.50
2007,07,12,04,09,17.50
2007,07,12,04,10,17.40
2007,07,12,04,11,17.30
2007,07,12,04,12,17.30
2007,07,12,04,13,17.30
2007,07,12,04,14,17.20
2007,07,12,04,15,17.10
2007,07,12,04,16,17.00
2007,07,12,04,17,16.90
2007,07,12,04,18,16.80
2007,07,12,04,19,16.70
2007,07,12,04,20,16.60
2007,07,12,04,21,16.50
2007,07,12,04,22,16.40
2007,07,12,04,23,16.40
2007,07,12,04,24,16.30
2007,07,12,04,25,16.20
2007,07,12,04,26,16.20
2007,07,12,04,27,16.10
2007,07,12,04,28,16.10
2007,07,12,04,29,16.10
2007,07,12,04,30,16.10
2007,07,12,04,31,16.00
2007,07,12,04,32,15.90
2007,07,12,04,33,15.90
2007,07,12,04,34,15.80
2007,07,12,04,35,15.80
2007,07,12,04,36,15.80
2007,07,12,04,37,15.80
2007,07,12,04,38,15.80
2007,07,12,04,39,15.80
2007,07,12,04,40,15.80
2007,07,12,04,41,15.80
2007,07,12,04,42,15.80
2007,07,12,04,43,15.80
2007,07,12,04,44,15.80
2007,07,12,04,45,15.80
2007,07,12,04,46,15.90
2007,07,12,04,47,15.90
2007,07,12,04,48,15.90
2007,07,12,04,49,15.90
2007,07,12,04,50,15.90
2007,07,12,04,51,15.90
2007,07,12,04,52,15.90
2007,07,12,04,53,15.90
2007,07,12,04,54,15.90
2007,07,12,04,55,15.90
2007,07,12,04,56,15.90
2007,07,12,04,57,15.90
2007,07,12,04,58,15.90
2007,07,12,04,59,15.90
2007,07,12,05,00,15.80
2007,07,12,05,01,15.80
2007,07,12,05,02,15.80
2007,07,12,05,03,15.80
2007,07,12,05,04,15.80
2007,07,12,05,05,15.80
2007,07,12,05,06,15.80
2007,07,12,05,07,15.80
2007,07,12,05,08,15.80
2007,07,12,05,09,15.80
2007,07,12,05,10,15.80
2007,07,12,05,11,15.80
2007,07,12,05,12,15.70
2007,07,12,05,13,15.70
2007,07,12,05,14,15.70
2007,07,12,05,15,15.60
2007,07,12,05,16,15.60
2007,07,12,05,17,15.60
2007,07,12,05,18,15.60
2007,07,12,05,19,15.60
2007,07,12,05,20,15.60
2007,07,12,05,21,15.60
2007,07,12,05,22,15.50
2007,07,12,05,23,15.50
2007,07,12,05,24,15.50
2007,07,12,05,25,15.40
2007,07,12,05,26,15.30
2007,07,12,05,27,15.30
2007,07,12,05,28,15.30
2007,07,12,05,29,15.30
2007,07,12,05,30,15.30
2007,07,12,05,31,15.30
2007,07,12,05,32,15.30
2007,07,12,05,33,15.30
2007,07,12,05,34,15.30
2007,07,12,05,35,15.30
2007,07,12,05,36,15.30
2007,07,12,05,37,15.20
2007,07,12,05,38,15.10
2007,07,12,05,39,15.00
2007,07,12,05,40,14.80
2007,07,12,05,41,14.70
2007,07,12,05,42,14.50
2007,07,12,05,43,14.30
2007,07,12,05,44,14.10
2007,07,12,05,45,14.00
2007,07,12,05,46,13.90
2007,07,12,05,47,13.80
2007,07,12,05,48,13.70
2007,07,12,05,49,13.70
2007,07,12,05,50,13.70
2007,07,12,05,51,13.70
2007,07,12,05,52,13.60
2007,07,12,05,53,13.60
2007,07,12,05,54,13.60
2007,07,12,05,55,13.60
2007,07,12,05,56,13.60
2007,07,12,05,57,13.60
2007,07,12,05,58,13.60
2007,07,12,05,59,13.60
2007,07,12,06,00,13.60
2007,07,12,06,01,13.60
2007,07,12,06,02,13.50
2007,07,12,06,03,13.50
2007,07,12,06,04,13.40
2007,07,12,06,05,13.40
2007,07,12,06,06,13.40
2007,07,12,06,07,13.30
2007,07,12,06,08,13.30
2007,07,12,06,09,13.30
2007,07,12,06,10,13.30
2007,07,12,06,11,13.30
2007,07,12,06,12,13.30
2007,07,12,06,13,13.40
2007,07,12,06,14,13.40
2007,07,12,06,15,13.40
2007,07,12,06,16,13.50
2007,07,12,06,17,13.50
2007,07,12,06,18,13.50
2007,07,12,06,19,13.50
2007,07,12,06,20,13.50
2007,07,12,06,21,13.50
2007,07,12,06,22,13.50
2007,07,12,06,23,13.60
2007,07,12,06,24,13.60
2007,07,12,06,25,13.50
2007,07,12,06,26,13.50
2007,07,12,06,27,13.40
2007,07,12,06,28,13.40
2007,07,12,06,29,13.40
2007,07,12,06,30,13.40
2007,07,12,06,31,13.30
2007,07,12,06,32,13.30
2007,07,12,06,33,13.30
2007,07,12,06,34,13.40
2007,07,12,06,35,13.40
2007,07,12,06,36,13.40
2007,07,12,06,37,13.40
2007,07,12,06,38,13.40
2007,07,12,06,39,13.40
2007,07,12,06,40,13.40
2007,07,12,06,41,13.40
2007,07,12,06,42,13.40
2007,07,12,06,43,13.40
2007,07,12,06,44,13.40
2007,07,12,06,45,13.40
2007,07,12,06,46,13.40
2007,07,12,06,47,13.30
2007,07,12,06,48,13.30
2007,07,12,06,49,13.30
2007,07,12,06,50,13.30
2007,07,12,06,51,13.30
2007,07,12,06,52,13.30
2007,07,12,06,53,13.40
2007,07,12,06,54,13.40
2007,07,12,06,55,13.40
2007,07,12,06,56,13.40
2007,07,12,06,57,13.40
2007,07,12,06,58,13.40
2007,07,12,06,59,13.40
2007,07,12,07,00,13.50
2007,07,12,07,01,13.50
2007,07,12,07,02,13.50
2007,07,12,07,03,13.60
2007,07,12,07,04,13.60
2007,07,12,07,05,13.50
2007,07,12,07,06,13.50
2007,07,12,07,07,13.50
2007,07,12,07,08,13.60
2007,07,12,07,09,13.60
2007,07,12,07,10,13.60
2007,07,12,07,11,13.60
2007,07,12,07,12,13.70
2007,07,12,07,13,13.70
2007,07,12,07,14,13.70
2007,07,12,07,15,13.70
2007,07,12,07,16,13.70
2007,07,12,07,17,13.70
2007,07,12,07,18,13.70
2007,07,12,07,19,13.70
2007,07,12,07,20,13.70
2007,07,12,07,21,13.70
2007,07,12,07,22,13.70
2007,07,12,07,23,13.70
2007,07,12,07,24,13.60
2007,07,12,07,25,13.60
2007,07,12,07,26,13.60
2007,07,12,07,27,13.60
2007,07,12,07,28,13.60
2007,07,12,07,29,13.60
2007,07,12,07,30,13.60
2007,07,12,07,31,13.60
2007,07,12,07,32,13.60
2007,07,12,07,33,13.60
2007,07,12,07,34,13.60
2007,07,12,07,35,13.50
2007,07,12,07,36,13.50
2007,07,12,07,37,13.50
2007,07,12,07,38,13.60
2007,07,12,07,39,13.60
2007,07,12,07,40,13.60
2007,07,12,07,41,13.60
2007,07,12,07,42,13.60
2007,07,12,07,43,13.60
2007,07,12,07,44,13.60
2007,07,12,07,45,13.60
2007,07,12,07,46,13.60
2007,07,12,07,47,13.70
2007,07,12,07,48,13.70
2007,07,12,07,49,13.70
2007,07,12,07,50,13.70
2007,07,12,07,51,13.70
2007,07,12,07,52,13.70
2007,07,12,07,53,13.70
2007,07,12,07,54,13.80
2007,07,12,07,55,13.80
2007,07,12,07,56,13.80
2007,07,12,07,57,13.80
2007,07,12,07,58,13.80
2007,07,12,07,59,13.80
2007,07,12,08,00,13.80
2007,07,12,08,01,13.80
2007,07,12,08,02,13.80
2007,07,12,08,03,13.80
2007,07,12,08,04,13.80
2007,07,12,08,05,13.80
2007,07,12,08,06,13.90
2007,07,12,08,07,13.90
2007,07,12,08,08,13.90
2007,07,12,08,09,13.90
2007,07,12,08,10,13.80
2007,07,12,08,11,13.90
2007,07,12,08,12,13.90
2007,07,12,08,13,13.90
2007,07,12,08,14,14.00
2007,07,12,08,15,14.00
2007,07,12,08,16,14.00
2007,07,12,08,17,14.10
2007,07,12,08,18,14.10
2007,07,12,08,19,14.10
2007,07,12,08,20,14.20
2007,07,12,08,21,14.20
2007,07,12,08,22,14.20
2007,07,12,08,23,14.20
2007,07,12,08,24,14.20
2007,07,12,08,25,14.20
2007,07,12,08,26,14.20
2007,07,12,08,27,14.20
2007,07,12,08,28,14.20
2007,07,12,08,29,14.20
2007,07,12,08,30,14.20
2007,07,12,08,31,14.20
2007,07,12,08,32,14.20
2007,07,12,08,33,14.20
2007,07,12,08,34,14.30
2007,07,12,08,35,14.30
2007,07,12,08,36,14.30
2007,07,12,08,37,14.30
2007,07,12,08,38,14.30
2007,07,12,08,39,14.40
2007,07,12,08,40,14.40
2007,07,12,08,41,14.40
2007,07,12,08,42,14.40
2007,07,12,08,43,14.40
2007,07,12,08,44,14.40
2007,07,12,08,45,14.40
2007,07,12,08,46,14.30
2007,07,12,08,47,14.40
2007,07,12,08,48,14.40
2007,07,12,08,49,14.40
2007,07,12,08,50,14.40
2007,07,12,08,51,14.40
2007,07,12,08,52,14.50
2007,07,12,08,53,14.50
2007,07,12,08,54,14.50
2007,07,12,08,55,14.60
2007,07,12,08,56,14.60
2007,07,12,08,57,14.70
2007,07,12,08,58,14.80
2007,07,12,08,59,14.80
2007,07,12,09,00,14.90
2007,07,12,09,01,14.90
2007,07,12,09,02,14.90
2007,07,12,09,03,14.90
2007,07,12,09,04,14.80
2007,07,12,09,05,14.80
2007,07,12,09,06,14.80
2007,07,12,09,07,14.80
2007,07,12,09,08,14.80
2007,07,12,09,09,14.80
2007,07,12,09,10,14.80
2007,07,12,09,11,14.80
2007,07,12,09,12,14.80
2007,07,12,09,13,14.80
2007,07,12,09,14,14.80
2007,07,12,09,15,14.80
2007,07,12,09,16,14.80
2007,07,12,09,17,14.90
2007,07,12,09,18,14.90
2007,07,12,09,19,14.90
2007,07,12,09,20,14.90
2007,07,12,09,21,14.90
2007,07,12,09,22,15.00
2007,07,12,09,23,15.00
2007,07,12,09,24,15.10
2007,07,12,09,25,15.10
2007,07,12,09,26,15.20
2007,07,12,09,27,15.20
2007,07,12,09,28,15.20
2007,07,12,09,29,15.20
2007,07,12,09,30,15.20
2007,07,12,09,31,15.20
2007,07,12,09,32,15.30
2007,07,12,09,33,15.30
2007,07,12,09,34,15.30
2007,07,12,09,35,15.30
2007,07,12,09,36,15.30
2007,07,12,09,37,15.30
2007,07,12,09,38,15.30
2007,07,12,09,39,15.30
2007,07,12,09,40,15.40
2007,07,12,09,41,15.40
2007,07,12,09,42,15.40
2007,07,12,09,43,15.40
2007,07,12,09,44,15.40
2007,07,12,09,45,15.40
2007,07,12,09,46,15.30
2007,07,12,09,47,15.30
2007,07,12,09,48,15.30
2007,07,12,09,49,15.30
2007,07,12,09,50,15.30
2007,07,12,09,51,15.40
2007,07,12,09,52,15.40
2007,07,12,09,53,15.40
2007,07,12,09,54,15.50
2007,07,12,09,55,15.50
2007,07,12,09,56,15.50
2007,07,12,09,57,15.50
2007,07,12,09,58,15.50
2007,07,12,09,59,15.50
2007,07,12,10,00,15.40
2007,07,12,10,01,15.30
2007,07,12,10,02,15.20
2007,07,12,10,03,15.20
2007,07,12,10,04,15.10
2007,07,12,10,05,15.00
2007,07,12,10,06,15.00
2007,07,12,10,07,15.00
2007,07,12,10,08,15.10
2007,07,12,10,09,15.10
2007,07,12,10,10,15.20
2007,07,12,10,11,15.30
2007,07,12,10,12,15.40
2007,07,12,10,13,15.50
2007,07,12,10,14,15.60
2007,07,12,10,15,15.60
2007,07,12,10,16,15.70
2007,07,12,10,17,15.80
2007,07,12,10,18,15.90
2007,07,12,10,19,16.10
2007,07,12,10,20,16.10
2007,07,12,10,21,16.10
2007,07,12,10,22,16.00
2007,07,12,10,23,15.80
2007,07,12,10,24,15.80
2007,07,12,10,25,15.80
2007,07,12,10,26,15.70
2007,07,12,10,27,15.70
2007,07,12,10,28,15.60
2007,07,12,10,29,15.60
2007,07,12,10,30,15.60
2007,07,12,10,31,15.60
2007,07,12,10,32,15.60
2007,07,12,10,33,15.60
2007,07,12,10,34,15.60
2007,07,12,10,35,15.70
2007,07,12,10,36,15.80
2007,07,12,10,37,15.80
2007,07,12,10,38,15.80
2007,07,12,10,39,16.00
2007,07,12,10,40,16.10
2007,07,12,10,41,16.10
2007,07,12,10,42,16.20
2007,07,12,10,43,16.20
2007,07,12,10,44,16.20
2007,07,12,10,45,16.30
2007,07,12,10,46,16.40
2007,07,12,10,47,16.40
2007,07,12,10,48,16.50
2007,07,12,10,49,16.60
2007,07,12,10,50,16.70
2007,07,12,10,51,16.70
2007,07,12,10,52,16.70
2007,07,12,10,53,16.80
2007,07,12,10,54,16.90
2007,07,12,10,55,17.00
2007,07,12,10,56,17.00
2007,07,12,10,57,17.00
2007,07,12,10,58,17.00
2007,07,12,10,59,17.00
2007,07,12,11,00,17.00
2007,07,12,11,01,17.10
2007,07,12,11,02,17.10
2007,07,12,11,03,17.10
2007,07,12,11,04,17.10
2007,07,12,11,05,17.00
2007,07,12,11,06,17.00
2007,07,12,11,07,17.10
2007,07,12,11,08,17.20
2007,07,12,11,09,17.30
2007,07,12,11,10,17.30
2007,07,12,11,11,17.50
2007,07,12,11,12,17.60
2007,07,12,11,13,17.80
2007,07,12,11,14,17.90
2007,07,12,11,15,18.00
2007,07,12,11,16,18.10
2007,07,12,11,17,18.10
2007,07,12,11,18,18.20
2007,07,12,11,19,18.20
2007,07,12,11,20,18.20
2007,07,12,11,21,18.10
2007,07,12,11,22,18.10
2007,07,12,11,23,18.10
2007,07,12,11,24,18.10
2007,07,12,11,25,18.10
2007,07,12,11,26,18.10
2007,07,12,11,27,18.20
2007,07,12,11,28,18.20
2007,07,12,11,29,18.20
2007,07,12,11,30,18.20
2007,07,12,11,31,18.30
2007,07,12,11,32,18.40
2007,07,12,11,33,18.40
2007,07,12,11,34,18.40
2007,07,12,11,35,18.40
2007,07,12,11,36,18.40
2007,07,12,11,37,18.40
2007,07,12,11,38,18.40
2007,07,12,11,39,18.40
2007,07,12,11,40,18.50
2007,07,12,11,41,18.50
2007,07,12,11,42,18.60
2007,07,12,11,43,18.50
2007,07,12,11,44,18.50
2007,07,12,11,45,18.50
2007,07,12,11,46,18.50
2007,07,12,11,47,18.50
2007,07,12,11,48,18.60
2007,07,12,11,49,18.60
2007,07,12,11,50,18.60
2007,07,12,11,51,18.50
2007,07,12,11,52,18.50
2007,07,12,11,53,18.50
2007,07,12,11,54,18.50
2007,07,12,11,55,18.50
2007,07,12,11,56,18.60
2007,07,12,11,57,18.60
2007,07,12,11,58,18.60
2007,07,12,11,59,18.70
2007,07,12,12,00,18.70
2007,07,12,12,01,18.70
2007,07,12,12,02,18.70
2007,07,12,12,03,18.70
2007,07,12,12,04,18.70
2007,07,12,12,05,18.70
2007,07,12,12,06,18.80
2007,07,12,12,07,18.80
2007,07,12,12,08,18.90
2007,07,12,12,09,18.90
2007,07,12,12,10,18.90
2007,07,12,12,11,18.90
2007,07,12,12,12,19.00
2007,07,12,12,13,19.10
2007,07,12,12,14,19.10
2007,07,12,12,15,19.10
2007,07,12,12,16,19.10
2007,07,12,12,17,19.10
2007,07,12,12,18,19.10
2007,07,12,12,19,19.10
2007,07,12,12,20,19.10
2007,07,12,12,21,19.10
2007,07,12,12,22,19.10
2007,07,12,12,23,19.10
2007,07,12,12,24,19.20
2007,07,12,12,25,19.10
2007,07,12,12,26,19.20
2007,07,12,12,27,19.20
2007,07,12,12,28,19.20
2007,07,12,12,29,19.20
2007,07,12,12,30,19.10
2007,07,12,12,31,19.10
2007,07,12,12,32,19.10
2007,07,12,12,33,19.00
2007,07,12,12,34,19.10
2007,07,12,12,35,19.10
2007,07,12,12,36,19.20
2007,07,12,12,37,19.30
2007,07,12,12,38,19.40
2007,07,12,12,39,19.40
2007,07,12,12,40,19.40
2007,07,12,12,41,19.50
2007,07,12,12,42,19.50
2007,07,12,12,43,19.50
2007,07,12,12,44,19.50
2007,07,12,12,45,19.50
2007,07,12,12,46,19.60
2007,07,12,12,47,19.70
2007,07,12,12,48,19.70
2007,07,12,12,49,19.70
2007,07,12,12,50,19.70
2007,07,12,12,51,19.80
2007,07,12,12,52,19.90
2007,07,12,12,53,20.00
2007,07,12,12,54,20.10
2007,07,12,12,55,20.10
2007,07,12,12,56,20.10
2007,07,12,12,57,20.00
2007,07,12,12,58,19.90
2007,07,12,12,59,20.00
2007,07,12,13,00,20.10
2007,07,12,13,01,20.20
2007,07,12,13,02,20.20
2007,07,12,13,03,20.20
2007,07,12,13,04,20.30
2007,07,12,13,05,20.30
2007,07,12,13,06,20.20
2007,07,12,13,07,20.10
2007,07,12,13,08,20.00
2007,07,12,13,09,19.90
2007,07,12,13,10,19.90
2007,07,12,13,11,19.70
2007,07,12,13,12,19.60
2007,07,12,13,13,19.40
2007,07,12,13,14,19.30
2007,07,12,13,15,19.20
2007,07,12,13,16,19.10
2007,07,12,13,17,19.10
2007,07,12,13,18,19.10
2007,07,12,13,19,19.00
2007,07,12,13,20,18.90
2007,07,12,13,21,18.90
2007,07,12,13,22,18.80
2007,07,12,13,23,18.70
2007,07,12,13,24,18.70
2007,07,12,13,25,18.60
2007,07,12,13,26,18.60
2007,07,12,13,27,18.60
2007,07,12,13,28,18.60
2007,07,12,13,29,18.70
2007,07,12,13,30,18.70
2007,07,12,13,31,18.80
2007,07,12,13,32,18.80
2007,07,12,13,33,18.80
2007,07,12,13,34,18.70
2007,07,12,13,35,18.60
2007,07,12,13,36,18.50
2007,07,12,13,37,18.50
2007,07,12,13,38,18.50
2007,07,12,13,39,18.60
2007,07,12,13,40,18.60
2007,07,12,13,41,18.60
2007,07,12,13,42,18.70
2007,07,12,13,43,18.70
2007,07,12,13,44,18.80
2007,07,12,13,45,18.80
2007,07,12,13,46,18.80
2007,07,12,13,47,18.80
2007,07,12,13,48,18.80
2007,07,12,13,49,18.90
2007,07,12,13,50,18.90
2007,07,12,13,51,18.90
2007,07,12,13,52,18.90
2007,07,12,13,53,18.90
2007,07,12,13,54,18.90
2007,07,12,13,55,18.80
2007,07,12,13,56,18.80
2007,07,12,13,57,18.80
2007,07,12,13,58,18.80
2007,07,12,13,59,18.80
2007,07,12,14,00,18.90
2007,07,12,14,01,18.90
2007,07,12,14,02,19.00
2007,07,12,14,03,19.10
2007,07,12,14,04,19.10
2007,07,12,14,05,19.20
2007,07,12,14,06,19.30
2007,07,12,14,07,19.30
2007,07,12,14,08,19.40
2007,07,12,14,09,19.40
2007,07,12,14,10,19.40
2007,07,12,14,11,19.40
2007,07,12,14,12,19.40
2007,07,12,14,13,19.40
2007,07,12,14,14,19.40
2007,07,12,14,15,19.30
2007,07,12,14,16,19.30
2007,07,12,14,17,19.30
2007,07,12,14,18,19.30
2007,07,12,14,19,19.30
2007,07,12,14,20,19.30
2007,07,12,14,21,19.20
2007,07,12,14,22,19.20
2007,07,12,14,23,19.10
2007,07,12,14,24,19.10
2007,07,12,14,25,19.10
2007,07,12,14,26,19.10
2007,07,12,14,27,19.10
2007,07,12,14,28,19.00
2007,07,12,14,29,18.90
2007,07,12,14,30,18.60
2007,07,12,14,31,18.40
2007,07,12,14,32,18.10
2007,07,12,14,33,18.00
2007,07,12,14,34,17.80
2007,07,12,14,35,17.70
2007,07,12,14,36,17.60
2007,07,12,14,37,17.60
2007,07,12,14,38,17.60
2007,07,12,14,39,17.70
2007,07,12,14,40,17.80
2007,07,12,14,41,17.90
2007,07,12,14,42,18.00
2007,07,12,14,43,18.10
2007,07,12,14,44,18.20
2007,07,12,14,45,18.30
2007,07,12,14,46,18.50
2007,07,12,14,47,18.60
2007,07,12,14,48,18.70
2007,07,12,14,49,18.90
2007,07,12,14,50,18.90
2007,07,12,14,51,19.00
2007,07,12,14,52,19.10
2007,07,12,14,53,19.30
2007,07,12,14,54,19.30
2007,07,12,14,55,19.30
2007,07,12,14,56,19.30
2007,07,12,14,57,19.40
2007,07,12,14,58,19.40
2007,07,12,14,59,19.40
2007,07,12,15,00,19.40
2007,07,12,15,01,19.50
2007,07,12,15,02,19.60
2007,07,12,15,03,19.60
2007,07,12,15,04,19.70
2007,07,12,15,05,19.80
2007,07,12,15,06,19.90
2007,07,12,15,07,20.00
2007,07,12,15,08,20.10
2007,07,12,15,09,20.20
2007,07,12,15,10,20.20
2007,07,12,15,11,20.30
2007,07,12,15,12,20.40
2007,07,12,15,13,20.50
2007,07,12,15,14,20.60
2007,07,12,15,15,20.70
2007,07,12,15,16,20.80
2007,07,12,15,17,20.90
2007,07,12,15,18,20.90
2007,07,12,15,19,21.00
2007,07,12,15,20,21.00
2007,07,12,15,21,21.00
2007,07,12,15,22,21.10
2007,07,12,15,23,21.20
2007,07,12,15,24,21.30
2007,07,12,15,25,21.30
2007,07,12,15,26,21.30
2007,07,12,15,27,21.40
2007,07,12,15,28,21.40
2007,07,12,15,29,21.40
2007,07,12,15,30,21.30
2007,07,12,15,31,21.30
2007,07,12,15,32,21.10
2007,07,12,15,33,20.80
2007,07,12,15,34,20.70
2007,07,12,15,35,20.70
2007,07,12,15,36,20.70
2007,07,12,15,37,20.80
2007,07,12,15,38,20.80
2007,07,12,15,39,20.80
2007,07,12,15,40,20.80
2007,07,12,15,41,20.90
2007,07,12,15,42,20.90
2007,07,12,15,43,20.90
2007,07,12,15,44,21.00
2007,07,12,15,45,21.10
2007,07,12,15,46,21.10
2007,07,12,15,47,21.20
2007,07,12,15,48,21.20
2007,07,12,15,49,21.20
2007,07,12,15,50,21.30
2007,07,12,15,51,21.30
2007,07,12,15,52,21.30
2007,07,12,15,53,21.30
2007,07,12,15,54,21.30
2007,07,12,15,55,21.30
2007,07,12,15,56,21.40
2007,07,12,15,57,21.40
2007,07,12,15,58,21.50
2007,07,12,15,59,21.60
2007,07,12,16,00,21.60
2007,07,12,16,01,21.60
2007,07,12,16,02,21.60
2007,07,12,16,03,21.60
2007,07,12,16,04,21.60
2007,07,12,16,05,21.50
2007,07,12,16,06,21.60
2007,07,12,16,07,21.60
2007,07,12,16,08,21.60
2007,07,12,16,09,21.70
2007,07,12,16,10,21.70
2007,07,12,16,11,21.70
2007,07,12,16,12,21.80
2007,07,12,16,13,21.80
2007,07,12,16,14,21.90
2007,07,12,16,15,22.00
2007,07,12,16,16,22.00
2007,07,12,16,17,22.00
2007,07,12,16,18,22.00
2007,07,12,16,19,22.00
2007,07,12,16,20,22.00
2007,07,12,16,21,22.00
2007,07,12,16,22,22.10
2007,07,12,16,23,22.20
2007,07,12,16,24,22.30
2007,07,12,16,25,22.40
2007,07,12,16,26,22.40
2007,07,12,16,27,22.40
2007,07,12,16,28,22.50
2007,07,12,16,29,22.50
2007,07,12,16,30,22.50
2007,07,12,16,31,22.50
2007,07,12,16,32,22.50
2007,07,12,16,33,22.60
2007,07,12,16,34,22.50
2007,07,12,16,35,22.50
2007,07,12,16,36,22.50
2007,07,12,16,37,22.50
2007,07,12,16,38,22.50
2007,07,12,16,39,22.50
2007,07,12,16,40,22.50
2007,07,12,16,41,22.40
2007,07,12,16,42,22.20
2007,07,12,16,43,22.00
2007,07,12,16,44,21.90
2007,07,12,16,45,21.80
2007,07,12,16,46,21.60
2007,07,12,16,47,21.40
2007,07,12,16,48,21.30
2007,07,12,16,49,21.30
2007,07,12,16,50,21.20
2007,07,12,16,51,21.30
2007,07,12,16,52,21.30
2007,07,12,16,53,21.20
2007,07,12,16,54,21.10
2007,07,12,16,55,21.10
2007,07,12,16,56,21.00
2007,07,12,16,57,21.00
2007,07,12,16,58,21.00
2007,07,12,16,59,21.00
2007,07,12,17,00,21.00
2007,07,12,17,01,21.10
2007,07,12,17,02,21.20
2007,07,12,17,03,21.20
2007,07,12,17,04,21.30
2007,07,12,17,05,21.30
2007,07,12,17,06,21.40
2007,07,12,17,07,21.50
2007,07,12,17,08,21.60
2007,07,12,17,09,21.70
2007,07,12,17,10,21.90
2007,07,12,17,11,22.00
2007,07,12,17,12,22.00
2007,07,12,17,13,22.00
2007,07,12,17,14,22.00
2007,07,12,17,15,22.10
2007,07,12,17,16,22.10
2007,07,12,17,17,22.10
2007,07,12,17,18,22.20
2007,07,12,17,19,22.20